ASIASTAR

Last updated on Wed Sep 17 2025 00:02:46 GMT+0000 (Coordinated Universal Time)

1 26107U 00016A 25259.58786668 -.00000349 00000+0 00000+0 0 9995 2 26107 8.4865 61.0032 0006720 142.3759 109.0248 1.00269013 93173
UTC large
Height (km)
Speed (km/s)
/
Latitude / Longitude
Inclination (degrees)
Orbital Period (minutes)
Azimuth
Elevation
Range (km)
Doppler Factor

Next 0 passes for location: London (51.5072 / 0.1276)

Sorry there are no passes over London.